Lid_Strength_Index
12 11 10 11 10 10 13 13 12 13 12 11 10 9 8 7 6 6 6 6 6 5 5 4 4 3 3 4 4 4 5 6 7 5 4 2 2 2 2 1 1 1 1 1
12 9 9 10 9 9 10 10 11 10 12 8 8 7 7 7 7 6 6 5 5 5 4 4 4 4 3 4 5 6 7 7 6 4 3 3 3 2 3 2 1 1 1 1
14 11 11 13 11 10 10 10 10 13 11 9 9 8 8 7 7 7 6 5 5 5 5 4 4 3 3 4 4 4 4 4 5 4 4 3 3 3 3 2 2 1 1 1
13 13 16 11 8 9 11 10 9 9 9 8 8 7 6 6 6 6 6 5 5 4 4 3 3 4 4 3 4 4 4 5 5 4 3 4 3 3 2 2 2 2 2 3
14 15 13 10 9 10 12 12 9 9 8 8 7 7 7 5 5 5 5 6 6 4 4 3 3 3 4 3 4 3 4 4 4 4 3 3 3 2 3 2 3 2 2 2
14 15 15 12 8 6 7 14 8 8 8 8 8 11 9 6 5 5 4 5 4 4 3 3 3 2 3 3 3 4 4 3 3 2 2 2 2 3 3 3 3 2 2 2
14 14 14 9 7 7 14 13 8 7 7 8 9 8 6 5 5 4 4 6 3 7 7 8 7 5 3 3 4 3 3 2 2 3 3 3 3 3 2 3 2 3 3 3
14 15 17 7 8 12 9 8 7 6 7 7 7 6 5 5 5 5 4 4 4 4 5 6 5 3 3 4 3 3 3 3 3 2 2 2 3 3 3 4 4 4 4 3
12 13 8 8 8 7 7 8 7 7 6 6 6 6 6 7 7 5 4 4 3 4 4 3 4 2 3 4 3 3 3 3 3 3 3 3 4 4 3 6 7 6 4 4
10 9 9 7 7 7 7 7 5 5 5 5 6 6 7 6 6 6 5 4 3 4 4 4 5 3 2 3 2 3 3 4 4 5 4 4 4 6 7 8 8 6 5 5
10 8 8 7 7 6 5 5 4 4 5 5 6 6 5 5 5 5 5 5 5 6 4 4 5 2 2 2 2 3 3 5 6 5 4 5 6 7 7 7 7 7 6 5
11 8 8 8 6 4 5 5 5 5 5 4 6 5 5 5 4 4 5 3 4 4 4 3 3 3 3 2 3 4 4 5 5 5 5 5 6 6 6 7 7 8 7 6
8 7 6 6 5 4 5 5 4 5 5 5 4 4 5 5 5 4 5 4 4 4 5 4 4 4 4 3 3 4 6 7 5 5 6 6 5 6 6 7 7 7 7 7
6 6 7 5 6 5 4 4 4 4 4 4 5 4 5 5 5 5 4 3 3 3 3 4 4 4 4 4 5 6 7 6 5 6 5 6 6 5 5 5 5 5 6 7
5 6 6 6 5 5 4 4 5 5 5 4 4 4 4 5 4 5 4 3 3 3 3 3 3 3 3 4 5 5 5 5 6 5 5 5 5 5 5 5 5 5 4 5
5 5 5 5 5 5 5 5 6 5 5 5 5 4 4 4 4 4 3 3 4 4 3 3 3 3 3 3 4 4 4 3 4 5 5 5 5 5 5 5 5 5 5 5
7 7 7 6 6 6 6 5 5 5 5 4 5 4 4 4 4 4 4 2 2 3 2 3 3 3 3 3 3 3 3 3 2 5 5 5 4 4 3 3 4 3 4 4
6 5 5 5 5 5 5 5 4 4 4 4 4 4 4 4 4 4 3 2 2 3 3 3 2 2 2 2 3 3 5 4 3 3 4 4 3 3 3 4 4 4 4 4
5 4 4 4 4 4 5 5 4 4 3 3 4 4 4 4 4 3 4 3 3 4 4 2 1 2 2 1 3 4 4 3 4 4 4 3 4 4 4 4 4 3 3 4
4 4 4 4 4 4 4 4 4 4 3 4 4 4 5 4 4 4 3 4 3 3 3 4 4 4 3 2 1 4 4 3 3 4 4 4 4 4 4 5 4 3 4 3
5 4 4 4 4 4 4 4 4 4 4 4 4 5 4 4 3 3 4 4 3 2 2 2 3 2 2 2 3 3 4 3 4 4 4 4 4 4 4 4 4 3 3 3
5 5 5 4 4 4 4 4 4 4 4 4 4 3 4 4 4 4 3 4 4 3 3 4 3 2 3 1 5 3 4 3 4 3 4 4 4 4 4 3 3 3 3 4
5 5 4 5 5 5 4 5 4 3 4 4 3 3 3 3 3 4 4 3 2 3 4 3 2 2 2 5 4 3 4 3 4 4 4 4 4 4 4 4 4 3 3 4
5 5 5 4 4 5 6 6 4 4 4 3 2 2 3 3 3 3 3 3 4 4 3 3 3 3 3 4 4 4 4 4 4 4 3 4 3 4 3 2 3 3 2 4
4 4 4 5 5 6 5 4 4 5 4 3 2 2 2 2 3 3 3 3 4 4 4 3 3 3 4 4 5 4 3 3 3 3 3 3 3 3 3 3 3 3 3 2
5 5 5 5 5 5 3 3 4 4 3 4 3 2 2 2 3 3 4 4 3 4 4 4 3 4 4 4 4 4 3 3 3 3 3 3 3 3 3 3 2 2 3 3
5 5 5 5 5 5 4 3 4 4 3 3 3 2 3 3 3 3 3 1 2 2 2 2 2 3 3 3 3 3 2 3 4 3 3 3 3 3 3 3 2 2 3 3